Location: Bratislava
(0.0000°N, 17.1167°E)
Time: 04:54:27
(UTC+01:00)

Meteor 2-21 - Pass Details

Date: 24 January 2021
Orbit: 934 x 966 km, 82.6° (Epoch: 04 March)

Event Time Altitude Azimuth Distance (km) Brightness Sun altitude
Rises 19:06:45 0° 179° (S) 3,589 7.7 -14.9°
Reaches altitude 10° 19:09:15 10° 176° (S) 2,643 7.0 -15.5°
Maximum altitude 19:15:15 70° 93° (E) 993 4.3 -16.9°
Drops below altitude 10° 19:21:14 10° 11° (N) 2,643 6.5 -18.3°
Enters shadow 19:22:45 - 9° (N) 3,217 6.9 -18.6°
